HK6RM-16 Weather Reports


time (UTC)temp
C
wind
direction
speed
KPH
gust
KPH
rain 1hr
cm
rain 24hr
cm
rain mn
cm
humidity
%
barometer
mb
20260507064124 9 107 8.0 4.8 0.00 0.00 0.00 76 1017.0
20260507062523 9 107 8.0 4.8 0.00 0.00 0.00 76 1018.0
20260507060921 9 107 8.0 4.8 0.00 0.00 0.00 76 1018.0
20260507055320 9 107 8.0 4.8 0.00 0.00 0.00 76 1018.0
20260507053719 9 107 8.0 4.8 0.00 0.00 0.00 74 1018.0
20260507052119 10 107 8.0 4.8 0.00 0.00 0.00 74 1018.0
20260507050518 10 107 8.0 4.8 0.00 0.00 0.00 74 1018.0
20260507044917 10 107 8.0 4.8 0.00 0.00 0.00 74 1018.0
20260507043316 10 107 8.0 4.8 0.00 0.00 0.00 74 1018.0
20260507041715 9 111 11.3 6.4 0.00 0.00 0.00 74 1018.0
20260507040114 9 111 11.3 6.4 0.00 0.00 0.00 74 1018.0
20260507034514 10 111 11.3 6.4 0.00 0.00 0.00 74 1018.0
20260507032912 10 111 11.3 6.4 0.00 0.00 0.00 74 1018.0
20260507031311 11 111 11.3 6.4 0.00 0.00 0.00 74 1018.0
20260507025710 11 111 11.3 6.4 0.00 0.00 0.00 74 1018.0
20260507024109 12 111 11.3 6.4 0.00 0.00 0.00 74 1018.0
20260507022508 12 111 11.3 6.4 0.00 0.00 0.00 74 1017.0
20260507020907 10 280 12.9 0.0 0.00 0.00 0.00 70 1017.0
20260507015306 10 280 12.9 0.0 0.00 0.00 0.00 70 1017.0
20260507013704 10 280 12.9 0.0 0.00 0.00 0.00 70 1017.0
20260507012104 10 280 12.9 0.0 0.00 0.00 0.00 70 1016.0
20260507010503 10 280 12.9 0.0 0.00 0.00 0.00 70 1016.0
20260507004902 10 280 12.9 0.0 0.00 0.00 0.00 70 1016.0
20260507003301 11 280 12.9 0.0 0.00 0.00 0.00 70 1016.0
20260507001701 11 280 12.9 0.0 0.00 0.00 0.00 70 1015.0
20260507000100 12 280 12.9 0.0 0.00 0.00 0.00 70 1015.0
20260506234500 12 280 12.9 0.0 0.00 0.00 0.00 70 1015.0
20260506232859 13 280 12.9 0.0 0.00 0.00 0.00 70 1014.0
20260506231259 13 280 12.9 0.0 0.00 0.00 0.00 70 1014.0
20260506225658 14 280 12.9 0.0 0.00 0.00 0.00 70 1014.0
20260506224058 15 280 12.9 0.0 0.00 0.00 0.00 70 1013.0
20260506222457 15 280 12.9 0.0 0.00 0.00 0.00 69 1012.0
20260506220857 16 280 12.9 0.0 0.00 0.00 0.00 69 1012.0
20260506215256 16 280 12.9 0.0 0.00 0.00 0.00 69 1012.0
20260506213655 17 280 12.9 0.0 0.00 0.00 0.00 69 1012.0
20260506212054 17 280 12.9 0.0 0.00 0.00 0.00 69 1011.0
20260506210453 17 280 12.9 0.0 0.00 0.00 0.00 69 1011.0
20260506204852 17 280 12.9 0.0 0.00 0.00 0.00 69 1011.0
20260506203250 18 280 12.9 0.0 0.00 0.00 0.00 69 1011.0
20260506201650 18 280 12.9 0.0 0.00 0.00 0.00 69 1011.0
20260506200049 19 280 12.9 0.0 0.00 0.00 0.00 69 1011.0
20260506194449 20 280 12.9 0.0 0.00 0.00 0.00 69 1011.0
20260506192848 20 280 12.9 0.0 0.00 0.00 0.00 69 1012.0
20260506191246 20 280 12.9 0.0 0.00 0.00 0.00 69 1012.0
20260506185641 20 320 12.9 0.0 0.00 0.00 0.00 69 1012.0
20260506184040 20 320 12.9 0.0 0.00 0.00 0.00 69 1012.0
20260506182440 17 290 12.9 0.0 0.00 0.00 0.00 76 1013.0
20260506180839 18 290 12.9 0.0 0.00 0.00 0.00 76 1013.0
20260506175239 18 290 12.9 0.0 0.00 0.00 0.00 76 1013.0
20260506173636 18 290 12.9 0.0 0.00 0.00 0.00 76 1013.0
20260506172035 18 290 12.9 0.0 0.00 0.00 0.00 76 1014.0
20260506170434 18 300 12.9 0.0 0.00 0.00 0.00 76 1014.0
20260506164833 18 300 12.9 0.0 0.00 0.00 0.00 76 1014.0
20260506163232 18 300 12.9 0.0 0.00 0.00 0.00 75 1014.0
20260506161632 18 300 12.9 0.0 0.00 0.00 0.00 74 1015.0
20260506160031 18 290 8.0 0.0 0.00 0.00 0.00 73 1015.0
20260506154431 18 290 8.0 0.0 0.00 0.00 0.00 73 1015.0
20260506152830 18 0 1.6 0.0 0.00 0.00 0.00 73 1016.0
20260506151230 18 0 1.6 0.0 0.00 0.00 0.00 73 1016.0
20260506145628 18 0 3.2 0.0 0.00 0.00 0.00 73 1016.0
20260506144028 19 0 3.2 0.0 0.00 0.00 0.00 73 1016.0
20260506142425 16 302 6.4 6.4 0.00 0.00 0.00 82 1017.0
20260506140825 16 302 6.4 6.4 0.00 0.00 0.00 82 1017.0
20260506135222 16 130 4.8 0.0 0.00 0.00 0.00 82 1017.0
20260506133622 15 130 4.8 0.0 0.00 0.00 0.00 82 1017.0
20260506132021 15 130 4.8 0.0 0.00 0.00 0.00 82 1017.0
20260506130419 16 80 4.8 0.0 0.00 0.00 0.00 82 1017.0
20260506124818 16 80 4.8 0.0 0.00 0.00 0.00 82 1017.0
20260506123218 12 0 1.6 0.0 0.00 0.00 0.00 94 1017.0
20260506121617 13 0 1.6 0.0 0.00 0.00 0.00 94 1017.0
20260506120017 13 0 3.2 0.0 0.00 0.00 0.00 94 1017.0
20260506114416 14 0 3.2 0.0 0.00 0.00 0.00 94 1017.0
20260506112816 9 109 6.4 4.8 0.00 0.00 0.00 92 1017.0
20260506111215 10 109 6.4 4.8 0.00 0.00 0.00 92 1017.0
20260506105615 10 109 6.4 4.8 0.00 0.00 0.00 92 1017.0
20260506104014 11 109 6.4 4.8 0.00 0.00 0.00 92 1017.0
20260506102414 9 100 4.8 0.0 0.00 0.00 0.00 92 1016.0
20260506100813 10 100 4.8 0.0 0.00 0.00 0.00 92 1016.0
20260506095213 10 100 4.8 0.0 0.00 0.00 0.00 92 1016.0
20260506093611 11 100 4.8 0.0 0.00 0.00 0.00 92 1016.0
20260506092010 11 100 4.8 0.0 0.00 0.00 0.00 92 1016.0
20260506090409 12 100 4.8 0.0 0.00 0.00 0.00 92 1016.0
20260506084808 12 100 4.8 0.0 0.00 0.00 0.00 92 1016.0
20260506083208 13 100 4.8 0.0 0.00 0.00 0.00 92 1016.0
20260506081608 13 100 4.8 0.0 0.00 0.00 0.00 91 1016.0
20260506072806 15 100 4.8 0.0 0.00 0.00 0.00 92 1016.0
20260506071205 15 0 1.6 0.0 0.00 0.00 0.00 94 1016.0